This is the latest recevied weather packets stored in our database for station/object OH6GKW. If no packets are shown the sender has not sent any weather packets the latest 10 day(s).
| Time | Temp. | Humidity | Pressure | Rain* | Wind** | Luminosity | Snow |
|---|---|---|---|---|---|---|---|
| 1788521335 | 15° C | 80% | 995.3 hPa | 0 mm | - | 183 W/m² | - |
| 1788521031 | 15° C | 78% | 995.3 hPa | 0 mm | - | 176 W/m² | - |
| 1788520724 | 15° C | 78% | 995.3 hPa | 0 mm | - | 199 W/m² | - |
| 1788520420 | 15° C | 78% | 995.4 hPa | 0 mm | - | 178 W/m² | - |
| 1788520112 | 15° C | 81% | 995.4 hPa | 0 mm | - | 165 W/m² | - |
| 1788519828 | 15° C | 83% | 995.4 hPa | 0 mm | - | 153 W/m² | - |
| 1788519518 | 15.56° C | 82% | 995.5 hPa | 0 mm | - | 172 W/m² | - |
| 1788519226 | 15.56° C | 81% | 995.5 hPa | 0 mm | - | 202 W/m² | - |
| 1788518918 | 15.56° C | 81% | 995.5 hPa | 0 mm | - | 743 W/m² | - |
| 1788518613 | 15° C | 81% | 995.7 hPa | 0 mm | - | 648 W/m² | - |
| 1788518317 | 15° C | 83% | 995.7 hPa | 0 mm | - | 384 W/m² | - |
| 1788518030 | 14.44° C | 86% | 995.7 hPa | 0 mm | - | 326 W/m² | - |
| 1788517726 | 14.44° C | 88% | 995.8 hPa | 0 mm | - | 322 W/m² | - |
| 1788517425 | 14.44° C | 88% | 995.8 hPa | 0 mm | - | 303 W/m² | - |
| 1788517121 | 13.89° C | 88% | 995.8 hPa | 0 mm | - | 317 W/m² | - |
| 1788516817 | 13.89° C | 89% | 995.8 hPa | 0 mm | - | 361 W/m² | - |
| 1788516509 | 13.89° C | 89% | 995.8 hPa | 0 mm | - | 202 W/m² | - |
| 1788516224 | 13.33° C | 89% | 995.8 hPa | 0 mm | - | 183 W/m² | - |
| 1788515917 | 13.33° C | 91% | 995.8 hPa | 0 mm | - | 123 W/m² | - |
| 1788515610 | 13.33° C | 93% | 995.8 hPa | 0 mm | - | 107 W/m² | - |
| 1788515333 | 13.89° C | 94% | 995.8 hPa | 0 mm | - | 95 W/m² | - |
| 1788515026 | 13.89° C | 93% | 995.9 hPa | 0 mm | - | 91 W/m² | - |
| 1788514717 | 13.89° C | 92% | 995.9 hPa | 0 mm | - | 91 W/m² | - |
| 1788514413 | 13.89° C | 92% | 995.9 hPa | 0 mm | - | 99 W/m² | - |
| 1788514122 | 13.89° C | 92% | 995.8 hPa | 0 mm | - | 91 W/m² | - |
* Rain since midnight (hover to see other rain measurements)
** Current wind speed in m/s (hover to see current wind gust speed)